KA8OAD-10 Weather Reports


time (UTC)temp
F
wind
direction
speed
knots
gust
knots
rain 1hr
in
rain 24hr
in
rain mn
in
humidity
%
barometer
mb
20260504010231 54 218 0.9 2.6 0.00 0.00 0.00 50 1010.6
20260504004232 55 236 1.7 3.5 0.00 0.00 0.00 47 1010.6
20260504003732 56 241 0.9 2.6 0.00 0.00 0.00 47 1010.6
20260504003231 56 242 0.9 2.6 0.00 0.00 0.00 48 1010.6
20260504002731 56 242 0.9 2.6 0.00 0.00 0.00 47 1010.6
20260504002230 56 240 1.7 3.5 0.00 0.00 0.00 46 1010.6
20260504001233 57 221 2.6 5.2 0.00 0.00 0.00 45 1010.7
20260504000733 57 224 2.6 6.1 0.00 0.00 0.00 45 1010.6
20260504000234 57 222 2.6 7.0 0.00 0.00 0.00 45 1010.5
20260503234730 57 232 3.5 9.6 0.00 0.00 0.00 45 1010.6
20260503234230 58 229 3.5 9.6 0.00 0.00 0.00 44 1010.7
20260503232732 58 225 3.5 8.7 0.00 0.00 0.00 43 1010.7
20260503232232 58 227 3.5 10.4 0.00 0.00 0.00 43 1010.7
20260503230730 58 227 3.5 7.8 0.00 0.00 0.00 43 1010.8
20260503230230 58 235 2.6 7.0 0.00 0.00 0.00 43 1010.8
20260503225233 58 228 2.6 7.0 0.00 0.00 0.00 42 1010.9
20260503224732 58 239 3.5 8.7 0.00 0.00 0.00 42 1010.9
20260503224232 58 237 3.5 9.6 0.00 0.00 0.00 42 1010.9
20260503222731 59 232 3.5 7.8 0.00 0.00 0.00 42 1011.0
20260503220733 59 237 3.5 11.3 0.00 0.00 0.00 40 1011.0
20260503220232 60 261 2.6 7.0 0.00 0.00 0.00 41 1011.1
20260503214730 60 241 2.6 9.6 0.00 0.00 0.00 40 1011.1
20260503214230 60 244 3.5 11.3 0.00 0.00 0.00 41 1011.1
20260503212232 60 233 3.5 10.4 0.00 0.00 0.00 41 1011.1
20260503210730 61 253 4.3 13.0 0.00 0.00 0.00 39 1011.0
20260503210230 61 255 3.5 9.6 0.00 0.00 0.00 40 1011.0
20260503205232 61 236 3.5 12.2 0.00 0.00 0.00 41 1011.1
20260503204732 61 256 3.5 13.0 0.00 0.00 0.00 39 1011.1
20260503204231 61 250 3.5 13.0 0.00 0.00 0.00 40 1011.1
20260503202730 61 243 3.5 8.7 0.00 0.00 0.00 40 1011.3
20260503202233 61 251 3.5 8.7 0.00 0.00 0.00 40 1011.3
20260503201232 61 235 3.5 7.8 0.00 0.00 0.00 39 1011.3
20260503200731 61 247 4.3 13.0 0.00 0.00 0.00 40 1011.6
20260503194733 62 244 4.3 12.2 0.00 0.00 0.00 38 1011.9
20260503192230 63 243 4.3 9.6 0.00 0.00 0.00 37 1012.3
20260503191233 63 240 4.3 10.4 0.00 0.00 0.00 36 1012.4
20260503190733 64 266 5.2 13.9 0.00 0.00 0.00 37 1012.4
20260503190231 63 287 5.2 16.5 0.00 0.00 0.00 36 1012.4
20260503185230 63 272 4.3 12.2 0.00 0.00 0.00 37 1012.6
20260503184428 63 278 4.3 13.0 0.00 0.00 0.00 38 1012.7
20260503184230 63 278 4.3 13.0 0.00 0.00 0.00 38 1012.7
20260503182733 61 278 4.3 13.9 0.00 0.00 0.00 43 1012.9
20260503182232 61 265 4.3 13.9 0.00 0.00 0.00 39 1013.0
20260503181231 61 249 4.3 13.0 0.00 0.00 0.00 40 1013.0
20260503180731 61 236 5.2 13.0 0.00 0.00 0.00 39 1012.9
20260503180230 62 228 5.2 12.2 0.00 0.00 0.00 39 1013.0
20260503175233 63 261 3.5 8.7 0.00 0.00 0.00 40 1013.1
20260503173231 64 271 3.5 10.4 0.00 0.00 0.00 42 1013.4
20260503172731 64 261 4.3 11.3 0.00 0.00 0.00 41 1013.6
20260503172230 64 239 4.3 11.3 0.00 0.00 0.00 38 1013.6
20260503171233 64 237 3.5 9.6 0.00 0.00 0.00 40 1013.7
20260503170732 63 269 4.3 13.9 0.00 0.00 0.00 40 1013.7
20260503170231 63 256 5.2 13.9 0.00 0.00 0.00 40 1013.8
20260503150733 54 226 2.6 13.0 0.00 0.00 0.00 50 1014.7
20260503150232 54 237 3.5 8.7 0.00 0.00 0.00 49 1014.8
20260503140230 48 230 2.6 7.0 0.00 0.00 0.00 57 1015.0
20260503130732 42 216 0.9 4.3 0.00 0.00 0.00 74 1015.4
20260503110232 32 0 0.0 0.0 0.00 0.00 0.00 87 1014.7
20260503100229 33 0 0.0 0.0 0.00 0.01 0.00 86 1014.3
20260503081230 35 0 0.0 0.0 0.00 0.05 0.00 84 1014.4
20260503070231 36 0 0.0 0.0 0.00 0.07 0.00 81 1014.5
20260503054229 39 0 0.0 0.0 0.00 0.14 0.00 78 1014.8
20260503053233 39 0 0.0 0.0 0.00 0.15 0.00 78 1014.7
20260503052232 39 0 0.0 0.0 0.00 0.17 0.00 78 1014.8
20260503051231 40 0 0.0 0.0 0.00 0.18 0.00 79 1014.8
20260503050229 40 0 0.0 0.0 0.00 0.20 0.00 79 1014.8
20260503045733 40 0 0.0 0.0 0.00 0.20 0.00 79 1014.9
20260503045232 40 0 0.0 0.0 0.00 0.20 0.00 79 1014.9
20260503044231 40 0 0.0 0.0 0.00 0.20 0.00 79 1014.9
20260503043230 40 0 0.0 0.0 0.00 0.20 0.00 80 1014.9
20260503042730 40 0 0.0 0.0 0.00 0.20 0.00 80 1014.9
20260503040732 40 257 0.0 1.7 0.00 0.20 0.00 80 1015.1
20260503035230 40 0 0.0 0.0 0.00 0.20 0.19 80 1015.1
20260503034229 40 0 0.0 0.0 0.00 0.20 0.19 80 1015.1
20260503033232 40 0 0.0 0.0 0.00 0.20 0.19 81 1015.1
20260503032732 40 0 0.0 0.0 0.00 0.20 0.19 81 1015.1
20260503032231 40 0 0.0 0.0 0.00 0.20 0.19 81 1015.2
20260503031230 40 0 0.0 0.0 0.00 0.20 0.19 81 1015.3
20260503030730 40 0 0.0 0.0 0.00 0.20 0.19 81 1015.3
20260503030229 40 0 0.0 0.0 0.00 0.20 0.19 81 1015.3
20260503025232 40 0 0.0 0.0 0.00 0.20 0.19 80 1015.4
20260503024732 40 0 0.0 0.0 0.00 0.20 0.19 80 1015.4
20260503024231 40 0 0.0 0.0 0.00 0.20 0.19 79 1015.4
20260503023230 40 0 0.0 0.0 0.00 0.20 0.19 79 1015.6
20260503022730 40 0 0.0 0.0 0.00 0.20 0.19 79 1015.6
20260503022230 40 0 0.0 0.0 0.00 0.20 0.19 78 1015.6
20260503020732 40 0 0.0 0.0 0.00 0.20 0.19 77 1015.5
20260503020232 40 0 0.0 0.0 0.00 0.20 0.19 77 1015.5
20260503015230 41 0 0.0 0.0 0.00 0.20 0.19 76 1015.5
20260503014730 41 0 0.0 0.0 0.00 0.20 0.19 76 1015.4
20260503014229 41 0 0.0 0.0 0.00 0.20 0.19 76 1015.5
20260503013233 41 0 0.0 0.0 0.00 0.20 0.19 74 1015.4
20260503012732 41 0 0.0 0.0 0.00 0.20 0.19 74 1015.4
20260503012231 41 0 0.0 0.0 0.00 0.20 0.19 73 1015.4